Weather History for Mumbai, India

Change the Weather History Date:

Saturday, February 1, 2014

  Actual Average Record
Temperature  
Mean Temperature 80 °F -  
Max Temperature 94 °F 87 °F 96 °F (1998)
Min Temperature 66 °F 68 °F 60 °F (2004)
Cooling Degree Days 15    
Growing Degree Days 30 (Base 50)    
Moisture  
Dew Point 55 °F    
Average Humidity 41    
Maximum Humidity 65    
Minimum Humidity 16    
Precipitation  
Precipitation 0.00 in - - ()
Sea Level Pressure  
Sea Level Pressure 29.92 in    
Wind  
Wind Speed 4 mph ()    
Max Wind Speed 14 mph    
Max Gust Speed -    
Visibility 1.4 miles    
Events      
Averages and records for this station are not official NWS values.
T = Trace of Precipitation, MM = Missing Value Source: Averaged Metar Reports

Daily Weather History Graph

Daily Weather History Graph

Search for Another Location

Airport:

Trip Planner

Search our weather history database for the weather conditions in past years. The results will help you decide how hot, cold, wet, or windy it might be!

Date:

Astronomy

Feb. 01, 2014 Rise Set
Actual Time 7:12 AM IST 6:31 PM IST
Civil Twilight 6:50 AM IST 6:54 PM IST
Nautical Twilight 6:23 AM IST 7:20 PM IST
Astronomical Twilight 5:57 AM IST 7:46 PM IST
Moon 8:03 AM IST (2/1) 8:11 PM IST (2/1)
Length of Visible Light 12h 04m
Length of Day
11h 18m
Waxing Crescent, 3% of the Moon is Illuminated
Feb 1
Waxing Crescent
Feb 7
First Quarter
Feb 15
Full
Feb 22
Last Quarter
Mar 1
New

Hourly Weather History & Observations

Time (IST) Temp. Heat Index Dew Point Humidity Pressure Visibility Wind Dir Wind Speed Gust Speed Precip Events Conditions
12:10 AM 80.6 °F 80.3 °F 53.6 °F 39% 29.89 in 1.3 mi SSE 4.6 mph - N/A   Smoke
12:40 AM 78.8 °F - 57.2 °F 47% 29.89 in 1.3 mi Calm Calm - N/A   Smoke
1:10 AM 77.0 °F - 57.2 °F 50% 29.89 in 1.3 mi East 4.6 mph - N/A   Smoke
1:40 AM 75.2 °F - 60.8 °F 61% 29.89 in 1.3 mi Calm Calm - N/A   Smoke
2:10 AM 77.0 °F - 60.8 °F 57% 29.89 in 1.3 mi South 5.8 mph - N/A   Smoke
2:30 AM 71 °F - 60 °F 61% 29.89 in 1 mi Calm Calm - -   Smoke
2:40 AM 77.0 °F - 60.8 °F 57% 29.89 in 1.3 mi East 4.6 mph - N/A   Smoke
3:40 AM 75.2 °F - 62.6 °F 65% 29.86 in 1.3 mi East 4.6 mph - N/A   Haze
4:10 AM 75.2 °F - 55.4 °F 50% 29.86 in 1.4 mi Calm Calm - N/A   Smoke
4:40 AM 77.0 °F - 53.6 °F 44% 29.89 in 1.4 mi East 4.6 mph - N/A   Smoke
5:10 AM 73.4 °F - 57.2 °F 57% 29.89 in 1.4 mi South 3.5 mph - N/A   Smoke
5:30 AM 69 °F - 58 °F 60% 29.89 in 1 mi Calm Calm - -   Smoke
5:40 AM 73.4 °F - 57.2 °F 57% 29.89 in 1.4 mi North 5.8 mph - N/A   Smoke
6:10 AM 73.4 °F - 55.4 °F 53% 29.89 in 1.4 mi South 3.5 mph - N/A   Smoke
6:40 AM 73.4 °F - 57.2 °F 57% 29.89 in 1.1 mi SSE 3.5 mph - N/A   Smoke
7:10 AM 75.2 °F - 53.6 °F 47% 29.92 in 1.1 mi South 4.6 mph - N/A   Smoke
8:30 AM 70 °F - 56 °F 51% 29.95 in 1 mi Calm Calm - -   Smoke
8:40 AM 78.8 °F - 51.8 °F 39% 29.95 in 0.9 mi NNE 3.5 mph - N/A   Smoke
9:40 AM 84.2 °F - 48.2 °F 29% 29.98 in 1.0 mi ESE 8.1 mph - N/A   Smoke
10:10 AM 84.2 °F - 48.2 °F 29% 29.98 in 1.0 mi ESE 8.1 mph - N/A   Smoke
10:40 AM 86.0 °F - 48.2 °F 27% 29.98 in 1.0 mi ESE 10.4 mph - N/A   Smoke
11:10 AM 87.8 °F - 48.2 °F 25% 29.98 in 1.0 mi ESE 9.2 mph - N/A   Smoke
11:30 AM 88 °F - 48 °F 16% 29.98 in 1 mi East 3.5 mph - -   Smoke
11:40 AM 87.8 °F - 48.2 °F 25% 29.98 in 1.1 mi ESE 6.9 mph - N/A   Smoke
12:10 PM 89.6 °F - 50.0 °F 26% 29.95 in 1.1 mi ESE 5.8 mph - N/A   Smoke
12:40 PM 91.4 °F - 48.2 °F 23% 29.95 in 1.2 mi SE 8.1 mph - N/A   Smoke
1:10 PM 93.2 °F - 48.2 °F 21% 29.92 in 1.2 mi SE 5.8 mph - N/A   Smoke
1:40 PM 93.2 °F - 48.2 °F 21% 29.92 in 1.2 mi ESE 6.9 mph - N/A   Smoke
2:10 PM 89.6 °F 87.3 °F 53.6 °F 29% 29.89 in 1.1 mi West 10.4 mph - N/A   Smoke
2:30 PM 91 °F - 53 °F 18% 29.90 in 1 mi West 6.9 mph - -   Smoke
2:40 PM 87.8 °F 87.1 °F 59.0 °F 38% 29.89 in 1.6 mi West 13.8 mph - N/A   Smoke
3:40 PM 87.8 °F 86.1 °F 55.4 °F 33% 29.89 in 2.5 mi West 9.2 mph - N/A   Smoke
4:10 PM 87.8 °F 86.5 °F 57.2 °F 35% 29.89 in 2.5 mi West 10.4 mph - N/A   Smoke
4:40 PM 86.0 °F 85.4 °F 59.0 °F 40% 29.89 in 2.5 mi WNW 6.9 mph - N/A   Smoke
5:10 PM 86.0 °F 85.4 °F 59.0 °F 40% 29.89 in 2.2 mi West 8.1 mph - N/A   Smoke
5:30 PM 85 °F - 58 °F 30% 29.88 in 1 mi West 4.6 mph - -   Smoke
6:10 PM 84.2 °F 83.5 °F 57.2 °F 40% 29.89 in 1.9 mi WNW 5.8 mph - N/A   Smoke
6:40 PM 84.2 °F 83.5 °F 57.2 °F 40% 29.89 in 1.6 mi NW 6.9 mph - N/A   Smoke
7:10 PM 82.4 °F 82.0 °F 57.2 °F 42% 29.89 in 1.6 mi NNW 4.6 mph - N/A   Smoke
7:40 PM 82.4 °F 82.0 °F 57.2 °F 42% 29.92 in 1.6 mi NNW 5.8 mph - N/A   Smoke
8:10 PM 82.4 °F 82.0 °F 57.2 °F 42% 29.92 in 1.6 mi NNW 3.5 mph - N/A   Smoke
8:30 PM 81 °F - 60 °F 39% 29.93 in 1 mi West 4.6 mph - -   Smoke
8:40 PM 80.6 °F 81.1 °F 59.0 °F 48% 29.95 in 1.6 mi North 4.6 mph - N/A   Smoke
9:10 PM 80.6 °F 81.1 °F 59.0 °F 48% 29.95 in 1.6 mi ENE 6.9 mph - N/A   Smoke
9:40 PM 80.6 °F 80.5 °F 55.4 °F 42% 29.95 in 1.6 mi East 3.5 mph - N/A   Smoke
10:10 PM 80.6 °F 80.5 °F 55.4 °F 42% 29.95 in 1.6 mi Calm Calm - N/A   Smoke
10:40 PM 78.8 °F - 57.2 °F 47% 29.95 in 1.3 mi ENE 3.5 mph - N/A   Smoke
11:10 PM 78.8 °F - 57.2 °F 47% 29.95 in 1.4 mi Calm Calm - N/A   Smoke
11:30 PM 74 °F - 60 °F 51% 29.92 in 1 mi North 3.5 mph - -   Smoke
11:40 PM 78.8 °F - 57.2 °F 47% 29.95 in 1.4 mi Calm Calm - N/A   Smoke